Regional Weather Roundup
Issued by NWS

Home | Current Version | Previous Version | Graphics & Text | Print | Product List | Glossary On
Versions: 1 2 3 4 5 6 7 8 9 10 11 12 13 14 15 16 17 18 19 20 21 22 23 24 25 26 27 28 29 30 31 32 33 34 35 36 37 38 39 40 41 42 43 44 45 46 47 48 49 50
000
ASUS43 KMKX 030311
RWRWI

WISCONSIN REGIONAL WEATHER ROUNDUP
NATIONAL WEATHER SERVICE MILWAUKEE/SULLIVAN WI
1000 PM CDT WED SEP 02 2015

NOTE: "FAIR" INDICATES FEW OR NO CLOUDS BELOW 12,000 FEET WITH NO
SIGNIFICANT WEATHER AND/OR OBSTRUCTIONS TO VISIBILITY.

WIZ001-002-006>008-014>016-023>028-030400-
NORTHWEST WISCONSIN

CITY           SKY/WX    TMP DP  RH WIND       PRES   REMARKS
SUPERIOR ARPT  PTCLDY    59  59  98 NE5       29.96S
ASHLAND        MOCLDY    61  61 100 N3        29.98R FOG
HAYWARD        PTCLDY    66  64  93 N3        29.96S
SIREN          MOCLDY    69  66  90 CALM      29.94S
CUMBERLAND     CLOUDY    66  64  94 NE5       29.95S
RICE LAKE      CLOUDY    68  65  91 CALM      29.95S
CHETEK         MOCLDY   N/A N/A N/A MISG      29.94S
LADYSMITH      CLOUDY    69  67  93 NE5       29.97S
EAU CLAIRE     CLOUDY    69  67  93 NE5       29.92R
MENOMONIE      CLOUDY    69  68  95 CALM      29.93R
NEW RICHMOND   PTCLDY    67  66  97 E5        29.93R
OSCEOLA        CLEAR     69  69 100 E5        29.95R
$$

WIZ003>005-009-010-017-018-030400-
NORTH CENTRAL WISCONSIN

CITY           SKY/WX    TMP DP  RH WIND       PRES   REMARKS
MANITOWISH WTR MOCLDY    64  64 100 E3        29.99R
ARBOR VITAE    CLOUDY    67  65  94 E6        29.99S
WOODRUFF       CLOUDY    67  65  94 E6        29.99S
RHINELANDER    CLOUDY    67  65  93 NE3       29.99R
EAGLE RIVER    RAIN      65  65  99 E9        30.00R
LAND O LAKES   CLOUDY    66  65  97 E3        30.01R
PHILLIPS       MOCLDY    65  64  96 CALM      29.97R
TOMAHAWK       CLOUDY    68  66  96 CALM      29.97S FOG
MEDFORD        CLOUDY    67  67 100 NE3       29.95S
MERRILL        CLOUDY    67  67 100 NE3       29.96S FOG
$$

WIZ029-030-035-036-043>047-030400-
CENTRAL WISCONSIN

CITY           SKY/WX    TMP DP  RH WIND       PRES   REMARKS
WAUSAU         LGT RAIN  69  67  93 CALM      29.93R
MOSINEE        CLOUDY    68  68 100 NE3       29.95R
MARSHFIELD     CLOUDY    72  67  84 CALM      29.94R
STEVENS POINT  CLOUDY    68  68  98 CALM      29.94S
WAUPACA        MOCLDY    74  72  91 CALM      29.93S
WAUTOMA        MOCLDY    76  69  79 CALM      29.93S
WISC RAPIDS    CLOUDY    75  68  78 CALM      29.94R
CAMP DOUGLAS   MOCLDY    75  75 100 S5        29.92S
$$

WIZ011>013-019>022-031-037>040-048>050-030400-
NORTHEAST WISCONSIN

CITY           SKY/WX    TMP DP  RH WIND       PRES   REMARKS
ANTIGO         CLOUDY    68  66  95 E3        29.96S
SHAWANO        CLOUDY    70  67  91 N5        29.95R
OCONTO         CLOUDY    67  67 100 SW12      29.96R
STURGEON BAY   CLOUDY    66  63  88 SE7       29.96F
GREEN BAY      LGT RAIN  71  68  90 E3        29.93R
MANITOWOC      CLEAR     64  62  93 MISG      29.95S FOG
APPLETON       MOCLDY    75  66  73 S8        29.92S
CLINTONVILLE   DRIZZLE   68  66  94 N9        29.94R
OSHKOSH        CLOUDY    76  69  79 S7        29.93S
$$

WIZ032>034-041-042-053>061-030400-
SOUTHWEST WISCONSIN

CITY           SKY/WX    TMP DP  RH WIND       PRES   REMARKS
LA CROSSE      CLOUDY    78  70  76 S7        29.90R HX  80
SPARTA         CLEAR     70  68  92 CALM      29.92S
VIROQUA          N/A     72  69  92 SW5       29.94S
BOSCOBEL       MOCLDY    78  69  73 SW6       29.93R HX  80
PRAIRIE DU CHI CLEAR     76  66  71 CALM      29.92S
PLATTEVILLE    CLEAR     73  70  92 S5        29.96R
$$

WIZ056-057-062-063-064-067-068-030400-
SOUTH CENTRAL WISCONSIN

CITY           SKY/WX    TMP DP  RH WIND       PRES   REMARKS
REEDSBURG      CLEAR     74  69  86 CALM      29.93R
BARABOO/DELLS  PTCLDY    73  66  81 NE3       29.94R
LONE ROCK      CLEAR     77  69  76 CALM      29.93R
MINERAL POINT  PTCLDY    77  70  78 SW9       29.96R
MADISON        MOCLDY    79  68  69 SW5       29.94R HX  81
MIDDLETON      MOCLDY    76  68  75 CALM      29.95R
WATERTOWN      CLOUDY    74  73  95 CALM      29.95R
MONROE         PTCLDY    73  68  83 SW8       29.96R
JANESVILLE     CLOUDY    77  68  73 CALM      29.95R
$$

WIZ051-052-058>065-066-070>072-030400-
SOUTHEAST WISCONSIN

CITY           SKY/WX    TMP DP  RH WIND       PRES   REMARKS
MILWAUKEE      MOCLDY    80  71  74 S7        29.96R HX  84
WAUKESHA       MOCLDY    73  68  83 CALM      29.97S
MILWAUKEE/TIMM MOCLDY    77  68  73 S3        29.96S
RACINE         MOCLDY    76  68  76 CALM      29.98R
BURLINGTON     CLEAR     71  69  94 CALM      29.96S
KENOSHA        CLOUDY    79  71  76 S3        29.97R HX  82
FOND DU LAC    CLOUDY    74  69  85 S7        29.94R
SHEBOYGAN      MOCLDY    70  67  90 CALM      29.95R
WEST BEND      CLOUDY    72  66  83 CALM      29.96R
JUNEAU         CLOUDY    75  68  79 CALM      29.96R
$$

LSZ147-162-030400-
LAKE SUPERIOR

STATION/POSITION TIME  TEMP    WIND        PRES    WAVE
                       AIR SEA DIR/SP/G            HT/PER
                 (UTC) (F)     (DEG/KT/KT) (MB)    (FT/S)
W MID LAKE BUOY  0250   58 57   80/ 10/ 12 1015.1R   0
DEVILS ISLAND    0300   59     100/  4/  4 1015.0R
PORT WING        0200   61      50/  3/  6 1014.6R
SAXON HARBOR     0200   63        CALM     1014.2
$$

LMZ867-665-643>646-030400-
LAKE MICHIGAN

STATION/POSITION TIME  TEMP    WIND        PRES    WAVE
                       AIR SEA DIR/SP/G            HT/PER
                 (UTC) (F)     (DEG/KT/KT) (MB)    (FT/S)
CHAMBERS ISLAND  0200   68      90/  6/ 10 1013.2F
S GREEN BAY BUOY 0300   67 66  130/ 14/ 17 1014.6F
N MID LAKE BUOY  0250   68 66  120/  4/  4 1013.7S   0
NORTHPORT PIER   0200   67     130/  6/  7 1013.9S
SISTER BAY       0249   68     130/ 12/ 16   N/A
ALGOMA LAKESHORE 0214           CALM  /  3   N/A
KEWAUNEE LAKESHO 0200   58      70/  2/  3 1013.4R
SHEBOYGAN LAKESH 0300   70     180/  3/  4 1014.0R
PORT WASHINGTON  0200   64      CALM  /  1 1014.2R
ATWATER BUOY     0300   61     160/  6/  8 1015.6R
MILWAUKEE LAKESH 0210   68     180/  1/  1   N/A
S MID LAKE BUOY  0250   74 71  170/  8/ 10 1014.2R   0
KENOSHA   LAKESH 0300   72     170/  5/  7 1014.2R
$$

TC  - TEMPERATURE IN CELSIUS
VSB - VISIBILITY IN STATUTE MILES
WCI - WIND CHILL INDEX
HX  - HEAT INDEX




USA.gov is the U.S. government's official web portal to all federal, state and local government web resources and services.